Regional Weather Roundup
Issued by NWS Memphis, TN

Home | Current Version | Previous Version | Text Only | Print | Product List | Glossary On
Versions: 1 2 3 4 5 6 7 8 9 10 11 12 13 14 15 16 17 18 19 20 21 22 23 24 25 26 27 28 29 30 31 32 33 34 35 36 37 38 39 40 41 42 43 44 45 46 47 48 49 50
000
ASUS44 KMEG 302110
RWRMEG
MEMPHIS CWA HOURLY WEATHER ROUNDUP
NATIONAL WEATHER SERVICE MEMPHIS TN
400 PM CDT SAT APR 30 2016

...WEST TENNESSEE...

CITY           SKY/WX    TMP DP  RH WIND       PRES   REMARKS
MEMPHIS INTL   CLOUDY    75  62  64 SE17G24   29.74F
NWS MEMPHIS      N/A     75 N/A N/A MISG        N/A
JACKSON        CLOUDY    70  63  78 E7        29.79F
LEXINGTON      MOSUNNY   66  64  94 S6        29.84F
DYERSBURG      CLOUDY    73  63  68 SE6         N/A
UNION CITY     SUNNY     72  64  78 SE6       29.78F


...EASTERN ARKANSAS...

CITY           SKY/WX    TMP DP  RH WIND       PRES   REMARKS
JONESBORO      SUNNY     75  62  64 S14       29.76S
WEST MEMPHIS   CLOUDY    75  63  66 SW9       29.78R
BATESVILLE     MOSUNNY   79  63  57 S9        29.75R
NEWPORT        MOSUNNY   78  62  57 S15       29.77R
WALNUT RIDGE   SUNNY     75  61  60 S10       29.76R
BLYTHEVILLE    CLOUDY    75  62  64 S6        29.79R
SEARCY         SUNNY     79  64  60 S13       29.77R
STUTTGART      SUNNY     79  63  57 SW8       29.76F
PINE BLUFF     MOSUNNY   80  62  54 S15G23    29.74F
MONTICELLO     MOSUNNY   80  65  59 S9G20     29.74S


...NORTH MISSISSIPPI...

CITY           SKY/WX    TMP DP  RH WIND       PRES   REMARKS
TUPELO         CLOUDY    71  63  75 E9        29.83F
OXFORD         CLOUDY    64  64 100 SE9       29.83F
BATESVILLE     FAIR      71  64  76 SE12G17   29.75F
OLIVE BRANCH   PTSUNNY   72  70  94 SE14G23   29.75F
TUNICA         MOSUNNY   72  64  78 SE13      29.75F
CORINTH        DRIZZLE   68  64  88 SE12      29.82F
GREENWOOD      CLOUDY    72  66  81 E10       29.78F
COLUMBUS       PTSUNNY   75  72  88 SE7       29.85F
STARKVILLE     LGT RAIN  73  70  88 SE5       29.84F
GOLDEN TRIANGL PTSUNNY   75  70  83 S5        29.85F


...SOUTHEAST MISSOURI...

CITY           SKY/WX    TMP DP  RH WIND       PRES   REMARKS
KENNETT        FAIR      75  63  64 S12       29.77R HAZE
WEST PLAINS    PTSUNNY   72  59  63 CALM      29.75F
POPLAR BLUFF   CLOUDY    73  62  68 S9G16     29.75F
CAPE GIRARDEAU CLOUDY    72  62  71 S8        29.77F


...NORTHWEST ALABAMA...

CITY           SKY/WX    TMP DP  RH WIND       PRES   REMARKS


...MIDDLE TENNESSEE...

CITY           SKY/WX    TMP DP  RH WIND       PRES   REMARKS
NASHVILLE      LGT RAIN  75  63  66 SW5       29.88S
CLARKSVILLE    CLOUDY    69  64  84 SW7       29.86F
COLUMBIA       PTSUNNY   73  73 100 SW7       29.87F


...WESTERN KENTUCKY...

CITY           SKY/WX    TMP DP  RH WIND       PRES   REMARKS
PADUCAH        CLOUDY    72  61  68 SW6       29.79F
FORT CAMPBELL  CLOUDY    70  64  83 SW8       29.86F


...CENTRAL ARKANSAS...

CITY           SKY/WX    TMP DP  RH WIND       PRES   REMARKS
LITTLE ROCK    MOSUNNY   80  63  55 SW8       29.74S


SKY/WX REPORTED AS FAIR MEANS FEW OR NO CLOUDS BELOW
12 THOUSAND FEET.




USA.gov is the U.S. government's official web portal to all federal, state and local government web resources and services.